Epoch,demod_status_bits,ebno,lock_status,signal_level,viterbi_ber
1664781014,C;S;V;F,11.5,0x00c000,-39.8,2.33e-5
1664781015,C;S;V;F,11.8,0x00c000,-39.5,1.27e-5
1664781016,C;S;V;F,11.0,0x00c000,-40.3,2.07e-5
1664781017,C;S;V;F,11.2,0x00c000,-39.9,2.60e-5
1664781018,C;S;V;F,11.9,0x00c000,-39.3,9.52e-6
1664781019,C;S;V;F,11.9,0x00c000,-39.2,3.63e-6
1664781020,C;S;V;F,11.9,0x00c000,-39.4,4.53e-6
1664781021,C;S;V;F,12.2,0x00c000,-39.4,
1664781022,C;S;V;F,11.9,0x00c000,-39.5,4.68e-6
1664781023,,11.8,0x00c000,-39.5,4.84e-6
1664781024,C;S;V;F,12.1,0x00c000,-39.5,6.20e-6
1664781025,C;S;V;F,11.9,0x00c000,-39.4,5.59e-6
1664781026,C;S;V;F,,0x00c000,-39.2,5.89e-6
1664781027,C;S;V;F,12.2,0x00c000,-39.1,4.38e-6
1664781028,C;S;V;F,12.3,0x00c000,,2.42e-6
1664781029,C;S;V;F,12.3,0x00c000,-39.2,1.96e-6
1664781030,C;S;V;F,12.0,0x00c000,-39.2,1.96e-6
1664781031,C;S;V;F,12.7,0x00c000,-38.9,1.51e-6
1664781032,C;S;V;F,12.4,0x00c000,-39.0,1.05e-6
1664781033,C;S;V;F,12.4,0x00c000,-39.2,1.21e-6
1664781034,C;S;V;F,12.6,0x00c000,-38.7,1.21e-6
1664781035,C;S;V;F,12.8,0x00c000,-38.7,4.54e-7
1664781036,C;S;V;F,12.7,0x00c000,-38.8,9.09e-7
1664781037,C;S;V;F,12.6,0x00c000,-39.0,
1664781038,,13.1,0x00c000,-38.5,9.09e-7
1664781039,C;S;V;F,12.5,0x00c000,-38.8,4.54e-7
1664781040,C;S;V;F,12.8,0x00c000,-39.0,1.51e-7
1664781041,C;S;V;F,,0x00c000,-38.5,9.09e-7
1664781042,C;S;V;F,13.2,0x00c000,,1.05e-6
1664781043,C;S;V;F,13.0,0x00c000,-38.8,0.00e-0
1664781045,C;S;V;F,13.2,0x00c000,-38.4,1.51e-7
1664781046,C;S;V;F,13.5,0x00c000,-38.7,
1664781047,,13.4,0x00c000,-38.4,1.51e-7
1664781048,C;S;V;F,,0x00c000,-38.0,0.00e-0
1664781049,C;S;V;F,13.5,0x00c000,,0.00e-0
1664781050,C;S;V;F,13.6,0x00c000,-38.2,0.00e-0
1664781051,C;S;V;F,13.4,0x00c000,-38.3,0.00e-0
1664781052,C;S;V;F,13.6,0x00c000,-38.1,0.00e-0
1664781053,C;S;V;F,13.9,0x00c000,-37.9,0.00e-0
1664781054,C;S;V;F,13.7,0x00c000,-38.0,0.00e-0
1664781055,C;S;V;F,13.9,0x00c000,-37.9,0.00e-0
1664781056,C;S;V;F,13.9,0x00c000,-37.8,0.00e-0
1664781057,C;S;V;F,14.0,0x00c000,-37.6,
1664781058,,13.9,0x00c000,-37.9,0.00e-0
1664781059,C;S;V;F,13.8,0x00c000,-37.8,0.00e-0
1664781060,C;S;V;F,13.9,0x00c000,-37.7,0.00e-0
1664781061,C;S;V;F,,0x00c000,-37.4,0.00e-0
1664781062,C;S;V;F,14.2,0x00c000,-37.5,0.00e-0
1664781063,C;S;V;F,14.4,0x00c000,-37.7,0.00e-0
1664781064,C;S;V;F,14.2,0x00c000,,0.00e-0
1664781065,C;S;V;F,14.5,0x00c000,-37.3,0.00e-0
1664781066,C;S;V;F,14.5,0x00c000,-37.4,0.00e-0
1664781067,C;S;V;F,14.7,0x00c000,-37.2,0.00e-0
1664781068,C;S;V;F,14.4,0x00c000,-37.2,0.00e-0
1664781069,C;S;V;F,14.6,0x00c000,-37.2,0.00e-0
1664781070,,14.9,0x00c000,-37.2,
1664781071,C;S;V;F,14.4,0x00c000,-37.3,0.00e-0
1664781072,C;S;V;F,,,,0.00e-0
1664781073,C;S;V;F,14.8,0x00c000,-37.1,0.00e-0
1664781074,C;S;V;F,14.8,0x00c000,-37.1,0.00e-0
1664781075,C;S;V;F,15.0,0x00c000,-36.9,0.00e-0
1664781076,C;S;V;F,14.9,0x00c000,-36.9,0.00e-0
1664781077,C;S;V;F,14.7,0x00c000,-37.0,0.00e-0
1664781078,C;S;V;F,14.9,0x00c000,-36.9,0.00e-0
1664781079,C;S;V;F,15.1,0x00c000,-36.8,0.00e-0
1664781080,C;S;V;F,15.1,0x00c000,-36.8,0.00e-0
1664781081,C;S;V;F,15.4,0x00c000,-36.4,0.00e-0
1664781082,C;S;V;F,15.4,0x00c000,-36.5,
1664781083,C;S;V;F,15.3,0x00c000,-36.5,0.00e-0
1664781084,,15.4,0x00c000,-36.4,0.00e-0
1664781085,C;S;V;F,15.6,0x00c000,-36.4,0.00e-0
1664781086,C;S;V;F,15.4,0x00c000,-36.4,0.00e-0
1664781087,C;S;V;F,,0x00c000,-36.5,0.00e-0
1664781088,C;S;V;F,15.3,0x00c000,,0.00e-0
1664781089,C;S;V;F,15.6,0x00c000,-36.4,0.00e-0
1664781090,C;S;V;F,15.7,0x00c000,-36.4,0.00e-0
1664781091,C;S;V;F,15.7,0x00c000,-36.2,0.00e-0
1664781092,C;S;V;F,15.8,0x00c000,-36.0,0.00e-0
1664781093,C;S;V;F,15.7,0x00c000,-36.2,0.00e-0
1664781094,C;S;V;F,15.7,0x00c000,-36.1,
1664781095,,15.8,0x00c000,-36.1,0.00e-0
1664781096,C;S;V;F,15.7,0x00c000,-36.0,0.00e-0
1664781097,C;S;V;F,,0x00c000,-36.0,0.00e-0
1664781098,C;S;V;F,15.7,0x00c000,-36.0,0.00e-0
1664781099,C;S;V;F,16.0,0x00c000,,0.00e-0
1664781100,C;S;V;F,15.9,0x00c000,-36.1,0.00e-0
1664781101,C;S;V;F,15.8,0x00c000,-36.0,0.00e-0
1664781102,C;S;V;F,16.1,0x00c000,-36.0,0.00e-0
1664781103,C;S;V;F,16.0,0x00c000,-36.0,0.00e-0
1664781104,C;S;V;F,16.0,0x00c000,-35.6,0.00e-0
1664781105,C;S;V;F,15.9,0x00c000,-35.9,0.00e-0
1664781108,C;S;V;F,15.9,0x00c000,-36.0,0.00e-0
1664781109,C;S;V;F,16.0,0x00c000,-35.8,0.00e-0
1664781110,C;S;V;F,16.0,0x00c000,-35.9,0.00e-0
1664781111,C;S;V;F,15.9,0x00c000,-35.8,0.00e-0
1664781112,C;S;V;F,15.7,0x00c000,-36.1,0.00e-0
1664781113,C;S;V;F,16.0,0x00c000,-35.8,
1664781114,,16.0,0x00c000,-35.8,0.00e-0
1664781115,C;S;V;F,16.1,0x00c000,-35.7,0.00e-0
1664781116,C;S;V;F,,0x00c000,-35.5,0.00e-0
1664781117,C;S;V;F,16.2,0x00c000,-35.5,0.00e-0
1664781118,C;S;V;F,16.3,0x00c000,,0.00e-0
1664781119,C;S;V;F,16.2,0x00c000,-35.4,0.00e-0
1664781120,C;S;V;F,16.3,0x00c000,-35.4,0.00e-0
1664781121,C;S;V;F,16.4,0x00c000,-35.3,0.00e-0
1664781122,C;S;V;F,16.3,0x00c000,-35.4,0.00e-0
1664781123,C;S;V;F,16.4,0x00c000,-35.2,0.00e-0
1664781124,C;S;V;F,16.7,0x00c000,-35.3,0.00e-0
1664781125,C;S;V;F,16.7,0x00c000,-35.2,0.00e-0
1664781126,C;S;V;F,16.6,0x00c000,-35.1,
1664781127,,16.7,0x00c000,-35.2,0.00e-0
1664781128,C;S;V;F,16.6,0x00c000,-35.1,0.00e-0
1664781129,C;S;V;F,,0x00c000,-35.0,0.00e-0
1664781130,C;S;V;F,16.6,0x00c000,-35.0,0.00e-0
1664781131,C;S;V;F,16.8,0x00c000,,0.00e-0
1664781132,C;S;V;F,16.8,0x00c000,-34.9,0.00e-0
1664781133,C;S;V;F,16.9,0x00c000,-35.0,0.00e-0
1664781134,C;S;V;F,16.8,0x00c000,-35.2,0.00e-0
1664781135,C;S;V;F,16.7,0x00c000,-35.2,0.00e-0
1664781136,C;S;V;F,16.7,0x00c000,-35.0,0.00e-0
1664781137,C;S;V;F,16.7,0x00c000,-35.0,0.00e-0
1664781138,C;S;V;F,16.8,0x00c000,-35.0,0.00e-0
1664781139,C;S;V;F,16.9,0x00c000,-35.0,0.00e-0
1664781140,C;S;V;F,16.9,0x00c000,-35.2,0.00e-0
1664781141,,16.6,0x00c000,-35.1,
1664781142,C;S;V;F,16.7,0x00c000,-35.1,0.00e-0
1664781143,C;S;V;F,16.8,0x00c000,-35.1,0.00e-0
1664781144,C;S;V;F,,0x00c000,-35.2,0.00e-0
1664781145,C;S;V;F,16.8,0x00c000,,0.00e-0
1664781146,C;S;V;F,16.7,0x00c000,-35.2,0.00e-0
1664781147,C;S;V;F,16.7,0x00c000,-35.5,0.00e-0
1664781148,C;S;V;F,16.6,0x00c000,-35.3,0.00e-0
1664781149,C;S;V;F,16.5,0x00c000,-35.6,0.00e-0
1664781150,,16.6,0x00c000,-35.4,
1664781151,C;S;V;F,16.6,0x00c000,-35.4,0.00e-0
1664781152,C;S;V;F,16.7,0x00c000,-35.6,0.00e-0
1664781153,C;S;V;F,16.2,0x00c000,-35.6,0.00e-0
1664781154,C;S;V;F,,0x00c000,-35.6,0.00e-0
1664781155,C;S;V;F,16.4,0x00c000,-35.5,0.00e-0
1664781156,C;S;V;F,16.3,0x00c000,,0.00e-0
1664781157,C;S;V;F,16.3,0x00c000,-35.7,0.00e-0
1664781158,C;S;V;F,16.1,0x00c000,-35.8,0.00e-0
1664781159,C;S;V;F,16.4,0x00c000,-35.6,0.00e-0
1664781160,C;S;V;F,16.3,0x00c000,-35.9,0.00e-0
1664781161,C;S;V;F,16.2,0x00c000,-35.9,0.00e-0
1664781162,C;S;V;F,16.4,0x00c000,-35.8,0.00e-0
1664781163,C;S;V;F,16.3,0x00c000,-35.8,0.00e-0
1664781164,C;S;V;F,16.6,0x00c000,-35.7,0.00e-0
1664781165,C;S;V;F,16.4,0x00c000,-35.9,
1664781166,,16.2,0x00c000,-36.0,0.00e-0
1664781167,C;S;V;F,16.3,0x00c000,-35.9,0.00e-0
1664781168,C;S;V;F,,0x00c000,,0.00e-0
1664781169,,16.2,0x00c000,-36.0,
1664781170,C;S;V;F,,0x00c000,,0.00e-0
1664781171,C;S;V;F,16.1,0x00c000,-36.0,0.00e-0
1664781172,C;S;V;F,16.0,0x00c000,-36.0,0.00e-0
1664781173,C;S;V;F,15.8,0x00c000,-36.2,0.00e-0
1664781174,C;S;V;F,16.1,0x00c000,-36.3,0.00e-0
1664781175,C;S;V;F,16.1,0x00c000,-36.3,0.00e-0
1664781176,C;S;V;F,15.7,0x00c000,-36.4,0.00e-0
1664781177,C;S;V;F,15.8,0x00c000,-36.5,0.00e-0
1664781178,C;S;V;F,15.9,0x00c000,-36.4,0.00e-0
1664781179,C;S;V;F,15.9,0x00c000,-36.5,
1664781180,,15.8,0x00c000,-36.3,0.00e-0
1664781181,C;S;V;F,15.8,0x00c000,-36.4,0.00e-0
1664781182,C;S;V;F,,0x00c000,-36.5,0.00e-0
1664781183,C;S;V;F,15.7,0x00c000,,0.00e-0
1664781184,C;S;V;F,15.8,0x00c000,-36.6,0.00e-0
1664781185,C;S;V;F,15.7,0x00c000,-36.7,0.00e-0
1664781186,C;S;V;F,15.7,0x00c000,-36.4,0.00e-0
1664781187,C;S;V;F,15.7,0x00c000,-36.5,0.00e-0
1664781188,C;S;V;F,15.8,0x00c000,-36.4,0.00e-0
1664781189,C;S;V;F,15.7,0x00c000,-36.3,0.00e-0
1664781190,C;S;V;F,16.0,0x00c000,-36.5,
1664781191,C;S;V;F,15.9,0x00c000,-36.4,0.00e-0
1664781192,,15.8,0x00c000,-36.2,0.00e-0
1664781193,C;S;V;F,15.9,0x00c000,-36.4,0.00e-0
1664781194,C;S;V;F,16.3,0x00c000,-36.2,0.00e-0
1664781195,C;S;V;F,,0x00c000,-36.2,0.00e-0
1664781196,C;S;V;F,16.1,0x00c000,-36.1,0.00e-0
1664781197,C;S;V;F,16.2,0x00c000,-36.0,0.00e-0
1664781198,C;S;V;F,16.2,0x00c000,,0.00e-0
1664781199,C;S;V;F,16.2,0x00c000,-36.1,0.00e-0
1664781200,C;S;V;F,16.2,0x00c000,-36.0,0.00e-0
1664781201,C;S;V;F,16.2,0x00c000,-36.1,0.00e-0
1664781202,C;S;V;F,16.2,0x00c000,-36.3,0.00e-0
1664781203,C;S;V;F,16.1,0x00c000,-36.0,0.00e-0
1664781204,C;S;V;F,16.2,0x00c000,-36.0,0.00e-0
1664781205,C;S;V;F,16.0,0x00c000,-36.0,0.00e-0
1664781206,C;S;V;F,16.3,0x00c000,-36.1,0.00e-0
1664781207,C;S;V;F,16.3,0x00c000,-36.1,0.00e-0
1664781208,,16.3,0x00c000,-36.1,
1664781209,C;S;V;F,16.2,0x00c000,-36.0,0.00e-0
1664781210,C;S;V;F,16.1,0x00c000,-36.2,0.00e-0
1664781211,C;S;V;F,16.3,0x00c000,-36.0,0.00e-0
1664781212,C;S;V;F,,0x00c000,-35.9,0.00e-0
1664781213,C;S;V;F,16.4,0x00c000,,0.00e-0
1664781214,C;S;V;F,16.4,0x00c000,-35.9,0.00e-0
1664781215,C;S;V;F,16.5,0x00c000,-35.8,0.00e-0
1664781216,C;S;V;F,16.6,0x00c000,-35.5,0.00e-0
1664781217,C;S;V;F,16.4,0x00c000,-35.6,0.00e-0
1664781218,C;S;V;F,16.8,0x00c000,-35.5,0.00e-0
1664781219,C;S;V;F,17.0,0x00c000,-35.1,0.00e-0
1664781220,C;S;V;F,17.1,0x00c000,-35.0,
1664781221,,17.0,0x00c000,-35.1,0.00e-0
1664781222,C;S;V;F,17.0,0x00c000,-34.7,0.00e-0
1664781223,C;S;V;F,17.0,0x00c000,-34.8,0.00e-0
1664781224,C;S;V;F,,0x00c000,-34.8,0.00e-0
1664781225,C;S;V;F,17.2,0x00c000,,0.00e-0
1664781226,C;S;V;F,17.1,0x00c000,-34.9,0.00e-0
1664781227,C;S;V;F,17.0,0x00c000,-35.1,0.00e-0
1664781228,C;S;V;F,17.1,0x00c000,-35.1,0.00e-0
1664781229,C;S;V;F,17.1,0x00c000,-35.0,0.00e-0
1664781230,C;S;V;F,17.2,0x00c000,-35.0,0.00e-0
1664781232,C;S;V;F,17.2,0x00c000,-34.8,0.00e-0
1664781233,,17.3,0x00c000,-34.9,
1664781234,C;S;V;F,,,,0.00e-0
1664781235,C;S;V;F,17.0,0x00c000,-34.9,0.00e-0
1664781236,C;S;V;F,17.1,0x00c000,-34.9,0.00e-0
1664781237,C;S;V;F,16.9,0x00c000,-35.3,0.00e-0
1664781238,C;S;V;F,16.8,0x00c000,-35.5,0.00e-0
1664781239,C;S;V;F,16.6,0x00c000,-35.6,0.00e-0
1664781240,C;S;V;F,16.7,0x00c000,-35.6,0.00e-0
1664781241,C;S;V;F,16.8,0x00c000,-35.5,0.00e-0
1664781242,C;S;V;F,16.8,0x00c000,-35.3,0.00e-0
1664781243,C;S;V;F,16.8,0x00c000,-35.1,0.00e-0
1664781244,C;S;V;F,17.0,0x00c000,-35.1,
1664781245,,16.8,0x00c000,-35.2,0.00e-0
1664781246,C;S;V;F,16.6,0x00c000,-35.6,0.00e-0
1664781247,C;S;V;F,16.6,0x00c000,-35.6,0.00e-0
1664781248,C;S;V;F,,0x00c000,-35.8,0.00e-0
1664781249,C;S;V;F,16.2,0x00c000,-36.0,0.00e-0
1664781250,C;S;V;F,16.3,0x00c000,,0.00e-0
1664781251,C;S;V;F,16.3,0x00c000,-36.3,0.00e-0
1664781252,C;S;V;F,16.1,0x00c000,-36.1,0.00e-0
1664781253,C;S;V;F,16.1,0x00c000,-36.1,0.00e-0
1664781254,C;S;V;F,16.2,0x00c000,-36.1,0.00e-0
1664781255,C;S;V;F,15.7,0x00c000,-36.2,0.00e-0
1664781256,C;S;V;F,15.6,0x00c000,-36.3,0.00e-0
1664781257,C;S;V;F,15.7,0x00c000,-36.6,
1664781258,,15.4,0x00c000,-36.8,0.00e-0
1664781259,C;S;V;F,15.5,0x00c000,-36.8,0.00e-0
1664781260,C;S;V;F,15.5,0x00c000,-36.7,0.00e-0
1664781261,C;S;V;F,,0x00c000,-36.7,0.00e-0
1664781262,C;S;V;F,15.8,0x00c000,-36.5,0.00e-0
1664781263,C;S;V;F,15.8,0x00c000,,0.00e-0
1664781266,C;S;V;F,15.4,0x00c000,-36.8,0.00e-0
1664781267,,15.6,0x00c000,-37.1,
1664781268,C;S;V;F,15.4,0x00c000,-37.1,0.00e-0
1664781269,C;S;V;F,,0x00c000,-37.2,0.00e-0
1664781270,C;S;V;F,15.3,0x00c000,-37.2,0.00e-0
1664781271,C;S;V;F,15.1,0x00c000,,0.00e-0
1664781272,C;S;V;F,15.1,0x00c000,-37.2,0.00e-0
1664781273,C;S;V;F,15.0,0x00c000,-37.6,0.00e-0
1664781274,C;S;V;F,14.8,0x00c000,-38.0,0.00e-0
1664781275,C;S;V;F,14.5,0x00c000,-38.0,0.00e-0
1664781276,C;S;V;F,14.3,0x00c000,-38.5,0.00e-0
1664781277,C;S;V;F,14.0,0x00c000,-38.8,0.00e-0
1664781278,C;S;V;F,13.7,0x00c000,-39.1,0.00e-0
1664781279,C;S;V;F,13.4,0x00c000,-39.5,
1664781280,,13.0,0x00c000,-39.6,1.51e-7
1664781281,C;S;V;F,13.0,0x00c000,-39.5,1.51e-7
1664781282,C;S;V;F,12.9,0x00c000,-39.6,0.00e-0
1664781283,C;S;V;F,,0x00c000,-39.8,3.03e-7
1664781284,C;S;V;F,12.8,0x00c000,-40.3,4.54e-7
1664781285,C;S;V;F,12.8,0x00c000,,1.21e-6
1664781286,C;S;V;F,12.3,0x00c000,-40.4,2.57e-6
1664781287,C;S;V;F,11.7,0x00c000,-40.7,4.08e-6
1664781288,C;S;V;F,11.8,0x00c000,-40.8,5.74e-6
1664781289,C;S;V;F,11.8,0x00c000,-40.6,7.86e-6
1664781290,C;S;V;F,11.4,0x00c000,-40.8,8.92e-6
1664781291,C;S;V;F,11.7,0x00c000,-40.7,8.77e-6
1664781292,C;S;V;F,11.4,0x00c000,-41.0,8.62e-6
1664781293,C;S;V;F,11.6,0x00c000,-40.8,1.15e-5
1664781296,C;S;V;F,11.5,0x00c000,-40.7,7.41e-6
1664781297,C;S;V;F,12.0,0x00c000,-40.4,4.99e-6
1664781298,C;S;V;F,12.3,0x00c000,-40.3,3.32e-6
1664781299,C;S;V;F,12.8,0x00c000,-39.8,2.11e-6
1664781300,C;S;V;F,13.2,0x00c000,-39.3,
1664781301,,13.8,0x00c000,-38.8,3.03e-7
1664781302,C;S;V;F,13.9,0x00c000,-38.5,0.00e-0
1664781303,C;S;V;F,13.8,0x00c000,-38.7,0.00e-0
1664781304,C;S;V;F,,0x00c000,-39.2,0.00e-0
1664781305,C;S;V;F,13.6,0x00c000,-39.4,0.00e-0
1664781306,C;S;V;F,13.2,0x00c000,,0.00e-0
1664781307,C;S;V;F,12.9,0x00c000,-39.7,1.51e-7
1664781308,C;S;V;F,12.8,0x00c000,-39.6,1.51e-7
1664781309,C;S;V;F,13.1,0x00c000,-39.1,0.00e-0
1664781310,C;S;V;F,13.9,0x00c000,-38.3,0.00e-0
1664781311,C;S;V;F,14.3,0x00c000,-38.0,0.00e-0
1664781312,C;S;V;F,15.0,0x00c000,-37.4,0.00e-0
1664781313,C;S;V;F,15.0,0x00c000,-37.5,0.00e-0
1664781314,C;S;V;F,15.1,0x00c000,-37.6,0.00e-0
1664781315,C;S;V;F,15.0,0x00c000,-37.9,0.00e-0
1664781316,C;S;V;F,14.7,0x00c000,-37.9,0.00e-0
1664781317,C;S;V;F,14.9,0x00c000,-37.8,
1664781318,,15.1,0x00c000,-37.2,0.00e-0
1664781319,C;S;V;F,15.6,0x00c000,-36.6,0.00e-0
1664781320,C;S;V;F,16.2,0x00c000,-36.3,0.00e-0
1664781321,C;S;V;F,,0x00c000,-36.3,0.00e-0
1664781322,C;S;V;F,16.4,0x00c000,-36.4,0.00e-0
1664781323,C;S;V;F,15.9,0x00c000,,0.00e-0
1664781324,C;S;V;F,15.6,0x00c000,-37.2,0.00e-0
1664781325,C;S;V;F,14.9,0x00c000,-37.6,0.00e-0
1664781326,C;S;V;F,14.6,0x00c000,-37.8,0.00e-0
1664781327,C;S;V;F,14.8,0x00c000,-37.7,0.00e-0
1664781328,C;S;V;F,14.9,0x00c000,-37.2,0.00e-0
1664781329,C;S;V;F,14.9,0x00c000,-37.6,0.00e-0
1664781330,C;S;V;F,15.1,0x00c000,-37.5,0.00e-0
1664781331,C;S;V;F,14.6,0x00c000,-37.6,0.00e-0
1664781332,C;S;V;F,14.8,0x00c000,-37.6,
1664781333,,14.7,0x00c000,-37.7,0.00e-0
1664781334,C;S;V;F,14.4,0x00c000,-37.9,0.00e-0
1664781335,C;S;V;F,,0x00c000,-37.9,0.00e-0
1664781336,C;S;V;F,14.3,0x00c000,-38.0,0.00e-0
1664781337,C;S;V;F,14.3,0x00c000,,0.00e-0
1664781338,C;S;V;F,14.3,0x00c000,-37.9,0.00e-0
1664781339,C;S;V;F,14.0,0x00c000,-38.1,0.00e-0
1664781340,C;S;V;F,13.7,0x00c000,-38.4,0.00e-0
1664781341,C;S;V;F,13.7,0x00c000,-38.4,0.00e-0
1664781342,C;S;V;F,14.1,0x00c000,-38.0,0.00e-0
1664781343,C;S;V;F,14.5,0x00c000,-37.6,0.00e-0
1664781344,C;S;V;F,14.9,0x00c000,-37.1,0.00e-0
1664781345,C;S;V;F,14.5,0x00c000,-37.6,0.00e-0
1664781346,C;S;V;F,14.1,0x00c000,-37.9,0.00e-0
1664781347,C;S;V;F,13.1,0x00c000,-38.8,
1664781348,,12.6,0x00c000,-39.3,0.00e-0
1664781349,C;S;V;F,12.7,0x00c000,-39.2,7.57e-7
1664781350,C;S;V;F,13.6,0x00c000,-38.0,1.05e-6
1664781351,C;S;V;F,14.2,0x00c000,-37.1,0.00e-0
1664781352,C;S;V;F,,0x00c000,-37.0,0.00e-0
1664781353,C;S;V;F,15.0,0x00c000,,0.00e-0
1664781354,C;S;V;F,14.9,0x00c000,-37.2,0.00e-0
1664781355,C;S;V;F,14.2,0x00c000,-38.1,0.00e-0
1664781356,C;S;V;F,12.4,0x00c000,-39.3,0.00e-0
1664781359,C;S;V;F,11.5,0x00c000,-40.1,8.31e-6
1664781360,C;S;V;F,12.0,0x00c000,-40.0,6.65e-6
1664781361,C;S;V;F,11.8,0x00c000,-40.2,5.74e-6
1664781362,C;S;V;F,11.3,0x00c000,-40.4,9.52e-6
1664781363,C;S;V;F,10.9,0x00c000,-40.7,1.79e-5
1664781364,C;S;V;F,10.6,0x00c000,-41.1,
1664781365,,10.2,0x00c000,-41.4,3.19e-5
1664781366,C;S;V;F,10.2,0x00c000,-41.5,6.12e-5
1664781367,C;S;V;F,,0x00c000,-41.2,0.98e-4
1664781368,C;S;V;F,10.4,0x00c000,-40.4,1.00e-4
1664781369,C;S;V;F,11.1,0x00c000,,4.78e-5
1664781370,C;S;V;F,12.3,0x00c000,-39.5,1.58e-5
1664781371,C;S;V;F,13.9,0x00c000,-38.4,7.57e-7
1664781372,C;S;V;F,13.9,0x00c000,-38.3,
1664781373,,13.4,0x00c000,-38.7,0.00e-0
1664781374,C;S;V;F,12.7,0x00c000,-39.4,0.00e-0
1664781375,C;S;V;F,12.8,0x00c000,-39.4,1.51e-7
1664781376,C;S;V;F,,0x00c000,-39.2,9.09e-7
1664781377,C;S;V;F,13.1,0x00c000,,4.54e-7
1664781378,C;S;V;F,13.5,0x00c000,-38.4,0.00e-0
1664781379,C;S;V;F,13.8,0x00c000,-38.6,0.00e-0
1664781380,C;S;V;F,13.7,0x00c000,-38.5,0.00e-0
1664781381,C;S;V;F,14.1,0x00c000,-37.8,0.00e-0
1664781382,C;S;V;F,14.7,0x00c000,-37.1,0.00e-0
1664781383,C;S;V;F,15.1,0x00c000,-36.5,0.00e-0
1664781384,,15.0,0x00c000,-36.9,
1664781385,C;S;V;F,15.1,0x00c000,-37.3,0.00e-0
1664781386,C;S;V;F,,0x00c000,-37.1,0.00e-0
1664781387,C;S;V;F,15.1,0x00c000,-36.5,0.00e-0
1664781388,C;S;V;F,15.7,0x00c000,,0.00e-0
1664781389,C;S;V;F,15.7,0x00c000,-36.5,0.00e-0
1664781390,C;S;V;F,15.5,0x00c000,-37.3,0.00e-0
1664781391,C;S;V;F,13.9,0x00c000,-38.3,0.00e-0
1664781392,C;S;V;F,13.3,0x00c000,-39.2,0.00e-0
1664781393,C;S;V;F,13.3,0x00c000,-39.1,1.51e-7
1664781394,C;S;V;F,14.1,0x00c000,-38.3,0.00e-0
1664781395,C;S;V;F,14.4,0x00c000,-37.6,0.00e-0
1664781396,C;S;V;F,14.6,0x00c000,-38.0,0.00e-0
1664781397,C;S;V;F,14.2,0x00c000,-38.4,0.00e-0
1664781398,C;S;V;F,14.1,0x00c000,-38.2,0.00e-0
1664781399,C;S;V;F,14.3,0x00c000,-38.2,
1664781400,,13.9,0x00c000,-38.6,0.00e-0
1664781401,C;S;V;F,13.0,0x00c000,-39.1,0.00e-0
1664781402,C;S;V;F,,0x00c000,-40.0,0.00e-0
1664781403,C;S;V;F,12.6,0x00c000,-39.4,7.57e-7
1664781404,C;S;V;F,12.9,0x00c000,,1.66e-6
1664781405,C;S;V;F,14.0,0x00c000,-38.3,3.03e-7
1664781406,C;S;V;F,14.0,0x00c000,-38.4,0.00e-0
1664781407,C;S;V;F,12.9,0x00c000,-39.7,1.51e-7
1664781408,C;S;V;F,12.0,0x00c000,-40.6,2.42e-6
1664781409,C;S;V;F,12.2,0x00c000,-39.9,4.38e-6
1664781410,C;S;V;F,14.1,0x00c000,-38.1,9.09e-7
1664781411,C;S;V;F,15.2,0x00c000,-37.3,0.00e-0
1664781412,C;S;V;F,15.1,0x00c000,-37.5,0.00e-0
1664781413,C;S;V;F,15.0,0x00c000,-37.8,
1664781414,,15.2,0x00c000,-37.1,0.00e-0
1664781415,C;S;V;F,15.5,0x00c000,-36.8,0.00e-0
1664781416,C;S;V;F,15.8,0x00c000,-37.1,0.00e-0
1664781417,C;S;V;F,,0x00c000,-37.8,0.00e-0
1664781418,C;S;V;F,15.0,0x00c000,,0.00e-0
1664781419,C;S;V;F,14.9,0x00c000,-37.5,0.00e-0
1664781421,,16.6,0x00c000,-35.7,
1664781422,C;S;V;F,,0x00c000,-35.7,0.00e-0
1664781423,C;S;V;F,16.7,0x00c000,-35.6,0.00e-0
1664781424,C;S;V;F,16.7,0x00c000,,0.00e-0
1664781425,C;S;V;F,16.9,0x00c000,-35.3,0.00e-0
1664781426,C;S;V;F,17.3,0x00c000,-34.9,0.00e-0
1664781427,C;S;V;F,17.6,0x00c000,-34.2,0.00e-0
1664781428,C;S;V;F,17.6,0x00c000,-34.3,0.00e-0
1664781429,C;S;V;F,17.4,0x00c000,-34.8,0.00e-0
1664781430,C;S;V;F,17.2,0x00c000,-35.1,0.00e-0
1664781431,C;S;V;F,17.3,0x00c000,-34.8,0.00e-0
1664781432,C;S;V;F,17.9,0x00c000,-33.9,0.00e-0
1664781433,C;S;V;F,17.8,0x00c000,-34.0,0.00e-0
1664781434,C;S;V;F,17.6,0x00c000,-34.5,
1664781435,,17.6,0x00c000,-34.6,0.00e-0
1664781436,C;S;V;F,17.7,0x00c000,-33.9,0.00e-0
1664781437,C;S;V;F,,0x00c000,-33.1,0.00e-0
1664781438,C;S;V;F,18.2,0x00c000,-33.2,0.00e-0
1664781439,C;S;V;F,18.4,0x00c000,,0.00e-0
1664781440,C;S;V;F,18.0,0x00c000,-33.5,0.00e-0
1664781441,C;S;V;F,17.4,0x00c000,-34.1,0.00e-0
1664781442,C;S;V;F,17.8,0x00c000,-34.3,0.00e-0
1664781443,C;S;V;F,17.9,0x00c000,-33.9,0.00e-0
1664781444,C;S;V;F,18.3,0x00c000,-33.4,0.00e-0
1664781445,,18.2,0x00c000,-33.6,
1664781446,C;S;V;F,17.8,0x00c000,-34.0,0.00e-0
1664781447,C;S;V;F,,0x00c000,-33.9,0.00e-0
1664781448,C;S;V;F,17.8,0x00c000,-33.7,0.00e-0
1664781449,C;S;V;F,17.9,0x00c000,-33.6,0.00e-0
1664781450,C;S;V;F,18.0,0x00c000,,0.00e-0
1664781451,C;S;V;F,18.1,0x00c000,-33.8,0.00e-0
1664781452,C;S;V;F,18.0,0x00c000,-34.0,0.00e-0
1664781453,C;S;V;F,17.8,0x00c000,-34.3,0.00e-0
1664781454,C;S;V;F,18.1,0x00c000,-34.3,0.00e-0
1664781455,C;S;V;F,17.6,0x00c000,-34.5,0.00e-0
1664781456,C;S;V;F,17.1,0x00c000,-35.1,0.00e-0
1664781457,C;S;V;F,17.1,0x00c000,-35.4,0.00e-0
1664781458,C;S;V;F,17.0,0x00c000,-35.1,
1664781459,,17.2,0x00c000,-35.0,0.00e-0
1664781460,C;S;V;F,17.7,0x00c000,-34.4,0.00e-0
1664781461,C;S;V;F,17.5,0x00c000,-34.5,0.00e-0
1664781462,C;S;V;F,17.5,0x00c000,-34.6,0.00e-0
1664781463,C;S;V;F,,0x00c000,-34.8,0.00e-0
1664781464,C;S;V;F,17.1,0x00c000,-34.7,0.00e-0
1664781465,C;S;V;F,17.3,0x00c000,-34.0,0.00e-0
1664781466,C;S;V;F,17.7,0x00c000,,0.00e-0
1664781467,C;S;V;F,17.8,0x00c000,-34.0,0.00e-0
1664781468,C;S;V;F,17.0,0x00c000,-34.8,0.00e-0
1664781469,C;S;V;F,16.5,0x00c000,-36.0,0.00e-0
1664781470,C;S;V;F,16.3,0x00c000,-36.0,0.00e-0
1664781471,C;S;V;F,16.7,0x00c000,-35.5,0.00e-0
1664781472,C;S;V;F,17.1,0x00c000,-34.8,0.00e-0
1664781473,C;S;V;F,17.0,0x00c000,-35.6,0.00e-0
1664781474,C;S;V;F,15.9,0x00c000,-36.6,0.00e-0
1664781475,C;S;V;F,14.8,0x00c000,-38.2,0.00e-0
1664781476,,14.3,0x00c000,-38.3,
1664781477,C;S;V;F,14.7,0x00c000,-37.7,0.00e-0
1664781478,C;S;V;F,15.7,0x00c000,-36.3,0.00e-0
1664781479,C;S;V;F,16.3,0x00c000,-35.4,0.00e-0
1664781480,C;S;V;F,,0x00c000,-35.5,0.00e-0
1664781481,C;S;V;F,16.7,0x00c000,-36.4,0.00e-0
1664781482,C;S;V;F,16.1,0x00c000,,0.00e-0
1664781484,C;S;V;F,15.0,0x00c000,-37.3,
1664781485,,16.2,0x00c000,-35.7,0.00e-0
1664781486,C;S;V;F,17.3,0x00c000,-34.5,0.00e-0
1664781487,C;S;V;F,17.5,0x00c000,-35.0,0.00e-0
1664781488,C;S;V;F,,0x00c000,-35.9,0.00e-0
1664781489,C;S;V;F,16.7,0x00c000,-38.1,0.00e-0
1664781490,C;S;V;F,15.4,0x00c000,,0.00e-0
1664781491,C;S;V;F,13.7,0x00c000,-38.5,0.00e-0
1664781492,C;S;V;F,15.0,0x00c000,-37.5,0.00e-0
1664781493,C;S;V;F,16.4,0x00c000,-35.3,0.00e-0
1664781494,C;S;V;F,17.4,0x00c000,-34.3,0.00e-0
1664781495,C;S;V;F,17.8,0x00c000,-34.0,0.00e-0
1664781496,C;S;V;F,17.3,0x00c000,-34.7,0.00e-0
1664781497,C;S;V;F,16.5,0x00c000,-35.6,0.00e-0
1664781498,C;S;V;F,15.7,0x00c000,-37.1,0.00e-0
1664781499,C;S;V;F,15.1,0x00c000,-37.5,0.00e-0
1664781500,C;S;V;F,15.5,0x00c000,-36.1,
1664781501,,16.7,0x00c000,-35.0,0.00e-0
1664781502,C;S;V;F,17.6,0x00c000,-34.0,0.00e-0
1664781503,C;S;V;F,18.0,0x00c000,-33.8,0.00e-0
1664781504,C;S;V;F,,0x00c000,,0.00e-0
1664781505,C;S;V;F,17.2,0x00c000,-34.7,0.00e-0
1664781506,C;S;V;F,16.5,0x00c000,-35.7,0.00e-0
1664781507,C;S;V;F,16.0,0x00c000,-36.8,0.00e-0
1664781508,C;S;V;F,16.2,0x00c000,-36.1,0.00e-0
1664781509,C;S;V;F,17.2,0x00c000,-34.4,0.00e-0
1664781510,C;S;V;F,18.0,0x00c000,-33.5,0.00e-0
1664781511,C;S;V;F,18.5,0x00c000,-32.8,0.00e-0
1664781512,C;S;V;F,18.5,0x00c000,-33.0,
1664781513,,18.2,0x00c000,-33.6,0.00e-0
1664781514,C;S;V;F,17.9,0x00c000,-34.7,0.00e-0
1664781515,C;S;V;F,17.1,0x00c000,-35.6,0.00e-0
1664781516,C;S;V;F,,0x00c000,-35.9,0.00e-0
1664781517,C;S;V;F,16.4,0x00c000,-35.1,0.00e-0
1664781518,C;S;V;F,17.1,0x00c000,-34.3,0.00e-0
1664781519,C;S;V;F,17.6,0x00c000,,0.00e-0
1664781520,C;S;V;F,18.0,0x00c000,-33.8,0.00e-0
1664781521,C;S;V;F,18.2,0x00c000,-33.3,0.00e-0
1664781522,C;S;V;F,18.1,0x00c000,-33.8,0.00e-0
1664781523,C;S;V;F,17.8,0x00c000,-34.1,0.00e-0
1664781524,C;S;V;F,17.2,0x00c000,-34.8,0.00e-0
1664781525,,16.9,0x00c000,-35.6,
1664781526,C;S;V;F,16.7,0x00c000,-35.3,0.00e-0
1664781527,C;S;V;F,17.2,0x00c000,-34.7,0.00e-0
1664781528,C;S;V;F,,0x00c000,-34.3,0.00e-0
1664781529,C;S;V;F,17.5,0x00c000,,0.00e-0
1664781530,C;S;V;F,17.8,0x00c000,-33.7,0.00e-0
1664781531,C;S;V;F,18.0,0x00c000,-33.5,0.00e-0
1664781532,C;S;V;F,18.0,0x00c000,-33.5,0.00e-0
1664781533,C;S;V;F,18.1,0x00c000,-33.8,0.00e-0
1664781534,,17.8,0x00c000,-34.5,
1664781535,C;S;V;F,17.4,0x00c000,-34.7,0.00e-0
1664781536,C;S;V;F,17.1,0x00c000,-35.4,0.00e-0
1664781537,C;S;V;F,16.8,0x00c000,-35.4,0.00e-0
1664781538,C;S;V;F,,0x00c000,-35.4,0.00e-0
1664781539,C;S;V;F,16.9,0x00c000,-35.4,0.00e-0
1664781540,C;S;V;F,16.7,0x00c000,-35.1,0.00e-0
1664781541,C;S;V;F,16.8,0x00c000,,0.00e-0
1664781542,C;S;V;F,17.0,0x00c000,-34.7,0.00e-0
1664781543,C;S;V;F,17.1,0x00c000,-34.6,0.00e-0
1664781544,C;S;V;F,17.2,0x00c000,-34.2,0.00e-0
1664781546,C;S;V;F,17.5,0x00c000,-34.1,0.00e-0
1664781547,C;S;V;F,17.7,0x00c000,-34.1,0.00e-0
1664781548,,17.4,0x00c000,-34.5,
1664781549,C;S;V;F,17.5,0x00c000,-34.4,0.00e-0
1664781550,C;S;V;F,17.3,0x00c000,-34.7,0.00e-0
1664781551,C;S;V;F,17.3,0x00c000,-34.8,0.00e-0
1664781552,C;S;V;F,17.3,0x00c000,-34.8,0.00e-0
1664781553,C;S;V;F,,0x00c000,-35.1,0.00e-0
1664781554,C;S;V;F,17.1,0x00c000,,0.00e-0
1664781555,C;S;V;F,17.1,0x00c000,-35.0,0.00e-0
1664781556,C;S;V;F,17.1,0x00c000,-35.2,0.00e-0